Flag for Germany Weather past 2 weeks in Emsdetten, North Rhine-Westphalia, Germany

Now
59 °F

Passing clouds.


Feels Like: 58 °F
Forecast: 53 / 63 °F
Wind: 7 mph from Southwest

Location: Muenster / Osnabrueck

Current Time: Aug 30, 2014 at 6:40:02 AM

Latest Report: Aug 30, 2014 at 6:20 AM


Visibility: N/A

Pressure: 29.98 "Hg

Humidity: 88%

Dew point: 55 °F

Location of EmsdettenLocation

Historic Weather in Emsdetten — Graph

°F

Emsdetten temperature yesterday

Maximum temperature yesterday: 72 °F (at 4:20 PM)
Minimum temperature yesterday: 59 °F (at 7:20 AM)
Average temperature yesterday: 65 °F

Past Weeks' High & Low Weather Summary

 TemperatureHumidityPressure
High75 °F (Aug 28, 3:20 PM)100% (Aug 15, 5:20 AM)30.07 "Hg (Aug 15, 5:20 AM)
Low41 °F (Aug 25, 3:50 AM)40% (Aug 27, 6:20 PM)29.62 "Hg (Aug 18, 4:20 AM)
Average57 °F82%29.91 "Hg
* Reported Aug 15 5:20 AM — Aug 30 5:20 AM, Emsdetten, Weather by CustomWeather, © 2014

Note: Actual official high and low records may vary slightly from our data, if they occured in-between our weather recording intervals... More about our weather records

Advertising

Emsdetten weather history for previous 24 hours

 ConditionsComfort  
Time TempWeatherWind HumidityBarometerVisibility
5:20 AM
Aug 30
59 °FClear.6 mph88%29.98 "Hg10 mi
4:50 AM59 °FClear.6 mph88%29.98 "Hg10 mi
4:20 AM59 °FClear.6 mph88%29.98 "Hg10 mi
3:50 AM59 °FClear.5 mph88%29.98 "Hg10 mi
3:20 AM61 °FClear.7 mph83%29.98 "Hg10 mi
2:50 AM61 °FClear.6 mph83%29.98 "Hg10 mi
2:20 AM61 °FClear.5 mph83%29.98 "Hg10 mi
1:50 AM61 °FPartly cloudy.5 mph83%29.98 "HgN/A
1:20 AM61 °FPartly cloudy.3 mph83%29.98 "HgN/A
12:50 AM61 °FPartly cloudy.5 mph83%29.98 "HgN/A
12:20 AM63 °FSprinkles. Partly cloudy.7 mph77%30.01 "HgN/A
11:50 PM
Aug 29
63 °FPassing clouds.5 mph77%29.98 "HgN/A
11:20 PM61 °FPassing clouds.5 mph88%29.98 "HgN/A
9:20 PM64 °FBroken clouds.5 mph78%29.98 "HgN/A
8:50 PM64 °FBroken clouds.5 mph73%29.98 "HgN/A
8:20 PM66 °FBroken clouds.6 mph68%29.98 "HgN/A
7:50 PM66 °FScattered showers. Broken clouds.7 mph64%29.98 "HgN/A
7:20 PM68 °FBroken clouds.7 mph60%29.95 "HgN/A
6:50 PM68 °FPartly sunny.7 mph60%29.95 "HgN/A
6:20 PM68 °FPartly sunny.8 mph60%29.95 "HgN/A
5:50 PM70 °FPartly sunny.7 mph57%29.95 "HgN/A
5:20 PM70 °FScattered clouds.9 mph57%29.95 "HgN/A
4:50 PM72 °FScattered clouds.9 mph53%29.98 "HgN/A
4:20 PM72 °FScattered clouds.9 mph53%29.98 "HgN/A
3:50 PM70 °FSunny.10 mph57%29.98 "Hg10 mi
3:20 PM70 °FScattered clouds.12 mph53%29.98 "HgN/A
2:50 PM70 °FScattered clouds.13 mph53%29.98 "HgN/A
2:20 PM70 °FScattered clouds.14 mph53%29.98 "HgN/A
1:50 PM68 °FScattered clouds.10 mph56%29.98 "HgN/A
1:20 PM70 °FScattered clouds.14 mph57%29.98 "HgN/A
12:50 PM68 °FScattered clouds.13 mph56%29.98 "HgN/A
12:20 PM68 °FPassing clouds.14 mph56%29.98 "HgN/A
11:50 AM68 °FPassing clouds.13 mph60%29.98 "HgN/A
11:20 AM66 °FPassing clouds.10 mph64%29.98 "HgN/A
10:50 AM64 °FPassing clouds.12 mph73%29.98 "HgN/A
10:20 AM64 °FBroken clouds.12 mph73%29.98 "HgN/A
9:50 AM63 °FBroken clouds.9 mph83%29.95 "HgN/A
9:20 AM63 °FBroken clouds.7 mph88%29.95 "Hg5 mi
8:50 AM61 °FPartly sunny.6 mph94%29.95 "Hg5 mi
8:20 AM61 °FPartly sunny.5 mph88%29.95 "Hg4 mi
7:50 AM59 °FPartly sunny.3 mph94%29.95 "Hg4 mi
7:20 AM59 °FPartly cloudy.3 mph100%29.95 "Hg4 mi
6:50 AM61 °FPartly cloudy.3 mph94%29.95 "Hg4 mi
6:20 AM61 °FPartly cloudy.5 mph94%29.95 "Hg5 mi
Weather by CustomWeather, © 2014

See weather overviewHow to use our weather pages